| Date | Time | Temp. (oF) | Dew Point (oF) | Rel. Hum. (%) | Press. (in.) | Wind Dir. | Wind Speed (mph) | Hourly Rainfall (in.) |
|
|---|---|---|---|---|---|---|---|---|---|
| 1 | 11/21 | 00:00 | 35 | 19 | 52 | 29.77 | N | 3 | 0.00 |
| 2 | 11/20 | 23:00 | 36 | 20 | 52 | 29.76 | S | 11 | 0.00 |
| 3 | 11/20 | 22:00 | 36 | 19 | 51 | 29.77 | W | 4 | 0.00 |
| 4 | 11/20 | 21:00 | 37 | 20 | 51 | 29.77 | S | 12 | 0.00 |
| 5 | 11/20 | 20:00 | 37 | 20 | 51 | 29.77 | N | 6 | 0.00 |
| 6 | 11/20 | 19:00 | 37 | 20 | 50 | 29.77 | N | 7 | 0.00 |
| 7 | 11/20 | 18:00 | 38 | 21 | 51 | 29.76 | N | 10 | 0.00 |
| 8 | 11/20 | 17:00 | 38 | 21 | 51 | 29.76 | NNW | 13 | 0.00 |
| 9 | 11/20 | 16:00 | 39 | 23 | 54 | 29.74 | SSW | 17 | 0.00 |
| 10 | 11/20 | 15:00 | 39 | 23 | 53 | 29.73 | S | 13 | 0.00 |
| 11 | 11/20 | 14:00 | 39 | 23 | 53 | 29.72 | N | 15 | 0.00 |
| 12 | 11/20 | 13:00 | 39 | 23 | 53 | 29.73 | NW | 15 | 0.00 |
| 13 | 11/20 | 12:00 | 39 | 23 | 53 | 29.74 | N | 10 | 0.00 |
| 14 | 11/20 | 11:00 | 39 | 24 | 55 | 29.75 | N | 4 | 0.00 |
| 15 | 11/20 | 10:00 | 39 | 24 | 56 | 29.76 | NNW | 22 | 0.00 |
| 16 | 11/20 | 09:00 | 38 | 23 | 56 | 29.76 | SSW | 9 | 0.00 |
| 17 | 11/20 | 08:00 | 37 | 23 | 57 | 29.77 | N | 3 | 0.00 |
| 18 | 11/20 | 07:00 | 36 | 23 | 59 | 29.78 | N | 9 | 0.00 |
| 19 | 11/20 | 06:00 | 35 | 22 | 61 | 29.77 | N | 5 | 0.00 |
| 20 | 11/20 | 05:00 | 35 | 22 | 61 | 29.77 | N | 5 | 0.00 |
| 21 | 11/20 | 04:00 | 35 | 22 | 61 | 29.76 | N | 6 | 0.00 |
| 22 | 11/20 | 03:00 | 36 | 24 | 62 | 29.75 | SSE | 7 | 0.00 |
| 23 | 11/20 | 02:00 | 36 | 24 | 64 | 29.75 | N | 3 | 0.00 |
| 24 | 11/20 | 01:00 | 37 | 26 | 66 | 29.76 | N | 7 | 0.00 |